Weather History for KASH - June, 2013

Change the Weather History Date:

Wednesday, June 12, 2013

  Actual Average Record
Temperature  
Mean Temperature 62 °F -  
Max Temperature 70 °F 77 °F 93 °F (1949)
Min Temperature 54 °F 50 °F 34 °F (1972)
Degree Days  
Heating Degree Days 3    
Growing Degree Days 12 (Base 50)    
Moisture  
Dew Point 53 °F    
Average Humidity 79    
Maximum Humidity 100    
Minimum Humidity 51    
Precipitation  
Precipitation 0.08 in - - ()
Sea Level Pressure  
Sea Level Pressure 30.17 in    
Wind  
Wind Speed 5 mph (NW)    
Max Wind Speed 23 mph    
Max Gust Speed 32 mph    
Visibility 8 miles    
Events Rain    
Averages and records for this station are not official NWS values.
T = Trace of Precipitation, MM = Missing Value Source: NWS Daily Summary

Daily Weather History Graph

Daily Weather History Graph

Search for Another Location

Airport or City:

Trip Planner

Search our weather history database for the weather conditions in past years. The results will help you decide how hot, cold, wet, or windy it might be!

Date:

Astronomy

Jun. 12, 2013 Rise Set
Actual Time 5:07 AM EDT 8:24 PM EDT
Civil Twilight 4:32 AM EDT 9:00 PM EDT
Nautical Twilight 3:46 AM EDT 9:45 PM EDT
Astronomical Twilight 2:51 AM EDT 10:41 PM EDT
Moon 8:47 AM EDT (6/12) 10:54 PM EDT (6/12)
Length of Visible Light 16h 27m
Length of Day
15h 17m
Waxing Crescent, 14% of the Moon is Illuminated
Jun 12
Waxing Crescent
Jun 16
First Quarter
Jun 23
Full
Jun 30
Last Quarter
Jul 8
New

Hourly Weather History & Observations

Time (EDT) Temp. Dew Point Humidity Pressure Visibility Wind Dir Wind Speed Gust Speed Precip Events Conditions
12:12 AM 55.4 °F 55.4 °F 100% 29.60 in 2.5 mi Calm Calm - 0.00 in Rain Light Rain
12:51 AM 55.9 °F 54.9 °F 96% 30.32 in 2.5 mi Calm Calm - 0.00 in   Overcast
1:01 AM 55.4 °F 55.4 °F 100% 29.60 in 3.0 mi Calm Calm - 0.01 in   Mostly Cloudy
1:18 AM 55.4 °F 55.4 °F 100% 29.59 in 5.0 mi Calm Calm - 0.01 in   Scattered Clouds
1:28 AM 55.4 °F 55.4 °F 100% 29.59 in 10.0 mi Calm Calm - 0.01 in   Mostly Cloudy
1:51 AM 55.9 °F 54.9 °F 96% 30.31 in 10.0 mi Calm Calm - 0.01 in   Mostly Cloudy
2:35 AM 55.4 °F 55.4 °F 100% 29.58 in 3.0 mi NW 3.5 mph - N/A   Mostly Cloudy
2:51 AM 55.9 °F 54.9 °F 96% 30.30 in 4.0 mi Calm Calm - N/A   Overcast
3:11 AM 55.4 °F 55.4 °F 100% 29.58 in 2.5 mi NW 4.6 mph - N/A   Mostly Cloudy
3:32 AM 55.4 °F 55.4 °F 100% 29.58 in 2.5 mi NNW 5.8 mph - N/A   Partly Cloudy
3:51 AM 55.9 °F 54.9 °F 96% 30.31 in 2.5 mi NW 3.5 mph - N/A   Partly Cloudy
4:41 AM 55.4 °F 53.6 °F 94% 29.59 in 3.0 mi NW 4.6 mph - N/A   Scattered Clouds
4:43 AM 55.4 °F 53.6 °F 94% 29.59 in 3.0 mi WNW 4.6 mph - N/A   Mostly Cloudy
4:51 AM 54.9 °F 54.0 °F 97% 30.32 in 3.0 mi WNW 3.5 mph - N/A   Mostly Cloudy
5:21 AM 55.4 °F 53.6 °F 94% 29.60 in 10.0 mi WSW 4.6 mph - N/A   Mostly Cloudy
5:51 AM 55.9 °F 54.0 °F 93% 30.34 in 10.0 mi Calm Calm - N/A   Overcast
6:51 AM 56.8 °F 54.9 °F 93% 30.34 in 10.0 mi West 3.5 mph - 0.01 in   Scattered Clouds
7:51 AM 59.0 °F 54.9 °F 86% 30.34 in 10.0 mi WNW 10.4 mph - 0.00 in   Scattered Clouds
8:51 AM 61.9 °F 52.9 °F 72% 30.35 in 10.0 mi NW 17.3 mph 23.0 mph 0.06 in   Mostly Cloudy
9:51 AM 63.0 °F 52.0 °F 67% 30.36 in 10.0 mi NW 19.6 mph 27.6 mph N/A   Overcast
10:51 AM 64.9 °F 52.0 °F 63% 30.37 in 10.0 mi NNW 17.3 mph 25.3 mph N/A   Overcast
11:51 AM 65.8 °F 52.0 °F 61% 30.38 in 10.0 mi NNW 23.0 mph 28.8 mph N/A   Overcast
12:51 PM 66.9 °F 52.0 °F 59% 30.40 in 10.0 mi NNW 19.6 mph 32.2 mph N/A   Mostly Cloudy
1:51 PM 68.9 °F 50.9 °F 53% 30.40 in 10.0 mi NNW 18.4 mph 27.6 mph N/A   Mostly Cloudy
2:51 PM 70.0 °F 52.0 °F 53% 30.41 in 10.0 mi NNW 19.6 mph 27.6 mph N/A   Overcast
3:51 PM 70.0 °F 52.0 °F 53% 30.42 in 10.0 mi NNW 21.9 mph 32.2 mph N/A   Partly Cloudy
4:51 PM 70.0 °F 52.0 °F 53% 30.44 in 10.0 mi NNW 13.8 mph 21.9 mph N/A   Scattered Clouds
5:51 PM 70.0 °F 50.9 °F 51% 30.45 in 10.0 mi NNW 18.4 mph 29.9 mph N/A   Clear
6:51 PM 68.9 °F 50.9 °F 53% 30.48 in 10.0 mi NNW 12.7 mph 21.9 mph N/A   Mostly Cloudy
7:51 PM 66.9 °F 50.9 °F 56% 30.51 in 10.0 mi NNW 13.8 mph - N/A   Clear
8:51 PM 64.9 °F 50.9 °F 60% 30.53 in 10.0 mi NW 6.9 mph - N/A   Mostly Cloudy
9:51 PM 63.9 °F 50.9 °F 63% 30.55 in 10.0 mi NW 8.1 mph - N/A   Overcast
10:51 PM 61.9 °F 50.9 °F 67% 30.56 in 10.0 mi WNW 4.6 mph - N/A   Partly Cloudy
11:51 PM 57.9 °F 52.0 °F 81% 30.55 in 10.0 mi NNW 5.8 mph - N/A   Clear